When you browse on this site, cookies collect data to enhance your experience and personalize the content and advertising you see.
Visit our Privacy Policy to learn more. By continuing to use the site, you agree to this use of cookies and data.
  • In United Kingdom
  • List of Countries
  • For 7 days
  • Water Temperature
  • Satellite Maps
  • Weather Map
  • Weather Widgets
  • user-avatar
    Login

    Hourly Weather Bandar Seri Begawan

    Today, 22 January, Tuesday

    Time Temperature Precipitation Wind Pressure Humidity
    00:00 +27°C° 0.1 mm 2 mps 756 mmHg 87%
    01:00 +27°C° 0.1 mm 2 mps 756 mmHg 88%
    02:00 +27°C° 0 mm 2 mps 756 mmHg 89%
    03:00 +27°C° 0.2 mm 1 mps 756 mmHg 90%
    04:00 +26°C° 0.2 mm 1 mps 756 mmHg 91%
    05:00 +26°C° 0.2 mm 1 mps 755 mmHg 91%
    06:00 +27°C° 0 mm 1 mps 756 mmHg 89%
    07:00 +27°C° 0 mm 1 mps 756 mmHg 87%
    08:00 +28°C° 0 mm 1 mps 756 mmHg 82%
    09:00 +29°C° 0.1 mm 1 mps 756 mmHg 74%
    10:00 +31°C° 0.1 mm 1 mps 756 mmHg 66%
    11:00 +31°C° 0.1 mm 0 mps 756 mmHg 58%
    12:00 +32°C° 0.9 mm 1 mps 756 mmHg 63%
    13:00 +31°C° 0.9 mm 2 mps 755 mmHg 68%
    14:00 +30°C° 0.9 mm 2 mps 755 mmHg 74%
    15:00 +29°C° 1.1 mm 2 mps 755 mmHg 78%
    16:00 +28°C° 1.1 mm 2 mps 754 mmHg 82%
    17:00 +28°C° 1.1 mm 2 mps 754 mmHg 87%
    18:00 +27°C° 1.1 mm 2 mps 754 mmHg 88%
    19:00 +27°C° 1.1 mm 2 mps 755 mmHg 89%
    20:00 +27°C° 1.1 mm 2 mps 755 mmHg 90%
    21:00 +27°C° 1.1 mm 2 mps 756 mmHg 91%
    22:00 +26°C° 1.1 mm 2 mps 756 mmHg 92%
    23:00 +26°C° 1.1 mm 2 mps 756 mmHg 92%

    Tomorrow, 23 January, Wednesday

    Time Temperature Precipitation Wind Pressure Humidity
    00:00 +26°C° 0.8 mm 2 mps 756 mmHg 93%
    01:00 +26°C° 0.8 mm 1 mps 756 mmHg 93%
    02:00 +26°C° 0.8 mm 1 mps 755 mmHg 93%
    03:00 +26°C° 0.6 mm 1 mps 755 mmHg 94%
    04:00 +26°C° 0.6 mm 1 mps 755 mmHg 94%
    05:00 +25°C° 0.6 mm 1 mps 755 mmHg 94%
    06:00 +26°C° 0.3 mm 1 mps 755 mmHg 93%
    07:00 +26°C° 0.3 mm 1 mps 756 mmHg 91%
    08:00 +27°C° 0.3 mm 1 mps 756 mmHg 90%
    09:00 +28°C° 0.6 mm 1 mps 756 mmHg 84%
    10:00 +29°C° 0.6 mm 1 mps 756 mmHg 79%
    11:00 +30°C° 0.6 mm 1 mps 756 mmHg 74%
    12:00 +30°C° 1 mm 2 mps 756 mmHg 75%
    13:00 +30°C° 1 mm 2 mps 755 mmHg 75%
    14:00 +30°C° 1 mm 3 mps 755 mmHg 76%
    15:00 +30°C° 1.9 mm 3 mps 754 mmHg 79%
    16:00 +29°C° 1.9 mm 3 mps 754 mmHg 82%
    17:00 +28°C° 1.9 mm 3 mps 754 mmHg 85%
    18:00 +28°C° 2 mm 3 mps 754 mmHg 87%
    19:00 +27°C° 2 mm 2 mps 755 mmHg 89%
    20:00 +27°C° 2 mm 2 mps 756 mmHg 91%
    21:00 +26°C° 1.4 mm 2 mps 756 mmHg 92%
    22:00 +26°C° 1.4 mm 2 mps 756 mmHg 92%
    23:00 +26°C° 1.4 mm 1 mps 756 mmHg 92%

    Day after tomorrow, 24 January, Thursday

    Time Temperature Precipitation Wind Pressure Humidity
    00:00 +26°C° 1.3 mm 1 mps 756 mmHg 93%
    01:00 +26°C° 1.3 mm 1 mps 756 mmHg 93%
    02:00 +26°C° 1.3 mm 1 mps 755 mmHg 93%
    03:00 +26°C° 1 mm 1 mps 755 mmHg 93%
    04:00 +26°C° 1 mm 1 mps 755 mmHg 94%
    05:00 +25°C° 1 mm 1 mps 755 mmHg 94%
    06:00 +26°C° 0.2 mm 1 mps 755 mmHg 92%
    07:00 +26°C° 0.2 mm 1 mps 756 mmHg 91%
    08:00 +27°C° 0.2 mm 1 mps 756 mmHg 90%
    09:00 +28°C° 0.1 mm 1 mps 756 mmHg 84%
    10:00 +29°C° 0.1 mm 1 mps 756 mmHg 77%
    11:00 +31°C° 0.1 mm 1 mps 756 mmHg 71%
    12:00 +31°C° 0.1 mm 1 mps 756 mmHg 71%
    13:00 +31°C° 0.1 mm 2 mps 755 mmHg 70%
    14:00 +31°C° 0.1 mm 3 mps 754 mmHg 69%
    15:00 +30°C° 0 mm 2 mps 754 mmHg 71%
    16:00 +30°C° 0 mm 2 mps 754 mmHg 74%
    17:00 +29°C° 0 mm 2 mps 754 mmHg 76%
    18:00 +29°C° 0 mm 2 mps 755 mmHg 80%
    19:00 +28°C° 0 mm 1 mps 755 mmHg 83%
    20:00 +28°C° 0 mm 1 mps 756 mmHg 87%
    21:00 +27°C° 0.1 mm 1 mps 756 mmHg 88%
    22:00 +27°C° 0.1 mm 1 mps 757 mmHg 89%
    23:00 +27°C° 0.1 mm 1 mps 757 mmHg 91%

    25 January, Friday

    Time Temperature Precipitation Wind Pressure Humidity
    00:00 +27°C° 0.1 mm 1 mps 757 mmHg 91%
    01:00 +26°C° 0.1 mm 1 mps 756 mmHg 92%
    02:00 +26°C° 0.1 mm 1 mps 756 mmHg 92%
    03:00 +26°C° 0 mm 1 mps 755 mmHg 92%
    04:00 +26°C° 0 mm 1 mps 755 mmHg 92%
    05:00 +26°C° 0 mm 1 mps 755 mmHg 92%
    06:00 +26°C° 0 mm 1 mps 755 mmHg 90%
    07:00 +27°C° 0 mm 1 mps 756 mmHg 88%
    08:00 +27°C° 0 mm 1 mps 756 mmHg 85%
    09:00 +28°C° 0 mm 1 mps 757 mmHg 81%
    10:00 +29°C° 0 mm 1 mps 757 mmHg 76%
    11:00 +30°C° 0 mm 1 mps 757 mmHg 72%
    12:00 +31°C° 0 mm 1 mps 756 mmHg 69%
    13:00 +31°C° 0 mm 2 mps 755 mmHg 66%
    14:00 +32°C° 0 mm 2 mps 755 mmHg 63%
    15:00 +31°C° 0.7 mm 2 mps 754 mmHg 68%
    16:00 +30°C° 0.7 mm 2 mps 754 mmHg 73%
    17:00 +30°C° 0.7 mm 2 mps 754 mmHg 78%
    18:00 +29°C° 0.9 mm 2 mps 755 mmHg 82%
    19:00 +28°C° 0.9 mm 2 mps 755 mmHg 87%
    20:00 +27°C° 0.9 mm 2 mps 756 mmHg 91%
    21:00 +27°C° 0.5 mm 1 mps 757 mmHg 92%
    22:00 +27°C° 0.5 mm 1 mps 757 mmHg 93%
    23:00 +27°C° 0.5 mm 1 mps 757 mmHg 94%

    26 January, Saturday

    Time Temperature Precipitation Wind Pressure Humidity
    00:00 +27°C° 0 mm 1 mps 757 mmHg 95%
    01:00 +27°C° 0 mm 1 mps 756 mmHg 95%
    02:00 +27°C° 0 mm 1 mps 756 mmHg 95%
    03:00 +26°C° 0 mm 1 mps 756 mmHg 95%
    04:00 +26°C° 0 mm 1 mps 755 mmHg 96%
    05:00 +26°C° 0 mm 1 mps 755 mmHg 96%
    06:00 +26°C° 0.1 mm 1 mps 756 mmHg 94%
    07:00 +27°C° 0.1 mm 1 mps 756 mmHg 92%
    08:00 +27°C° 0.1 mm 1 mps 757 mmHg 90%
    09:00 +29°C° 0.2 mm 1 mps 757 mmHg 79%
    10:00 +30°C° 0.2 mm 0 mps 757 mmHg 67%
    11:00 +32°C° 0.2 mm 0 mps 757 mmHg 56%
    12:00 +34°C° 0.2 mm 1 mps 756 mmHg 59%
    13:00 +34°C° 0.2 mm 2 mps 755 mmHg 62%
    14:00 +33°C° 0.2 mm 3 mps 754 mmHg 65%
    15:00 +31°C° 0.7 mm 3 mps 754 mmHg 71%
    16:00 +30°C° 0.7 mm 3 mps 754 mmHg 77%
    17:00 +29°C° 0.7 mm 3 mps 754 mmHg 83%
    18:00 +28°C° 0.4 mm 3 mps 755 mmHg 86%
    19:00 +28°C° 0.4 mm 3 mps 755 mmHg 89%
    20:00 +27°C° 0.4 mm 3 mps 756 mmHg 91%
    21:00 +27°C° 0.4 mm 2 mps 756 mmHg 93%
    22:00 +27°C° 0.4 mm 2 mps 757 mmHg 94%
    23:00 +27°C° 0.4 mm 2 mps 757 mmHg 95%

    27 January, Sunday

    Time Temperature Precipitation Wind Pressure Humidity
    00:00 +27°C° 0.4 mm 1 mps 756 mmHg 94%
    01:00 +27°C° 0.4 mm 1 mps 756 mmHg 94%
    02:00 +26°C° 0.4 mm 1 mps 756 mmHg 94%
    03:00 +26°C° 0.9 mm 1 mps 755 mmHg 93%
    04:00 +26°C° 0.9 mm 1 mps 755 mmHg 93%
    05:00 +26°C° 0.9 mm 1 mps 755 mmHg 92%
    06:00 +27°C° 0.3 mm 1 mps 756 mmHg 91%
    07:00 +27°C° 0.3 mm 1 mps 756 mmHg 90%
    08:00 +27°C° 0.3 mm 1 mps 757 mmHg 89%
    09:00 +29°C° 0 mm 1 mps 757 mmHg 80%
    10:00 +31°C° 0 mm 1 mps 757 mmHg 71%
    11:00 +33°C° 0 mm 1 mps 757 mmHg 62%
    12:00 +33°C° 0.1 mm 1 mps 756 mmHg 63%
    13:00 +32°C° 0.1 mm 2 mps 755 mmHg 65%
    14:00 +32°C° 0.1 mm 2 mps 755 mmHg 66%
    15:00 +31°C° 0.5 mm 2 mps 755 mmHg 72%
    16:00 +30°C° 0.5 mm 2 mps 754 mmHg 78%
    17:00 +29°C° 0.5 mm 2 mps 754 mmHg 84%
    18:00 +28°C° 0.8 mm 2 mps 755 mmHg 86%
    19:00 +28°C° 0.8 mm 2 mps 755 mmHg 88%
    20:00 +27°C° 0.8 mm 2 mps 756 mmHg 90%
    21:00 +27°C° 0.9 mm 2 mps 756 mmHg 91%
    22:00 +27°C° 0.9 mm 2 mps 756 mmHg 91%
    23:00 +27°C° 0.9 mm 2 mps 756 mmHg 91%
    Show more